EFW8ZA LEZL-EGKK

Flight info

Callsign EFW8ZA
Flight time 2h 13m
Altitude 36000
Route HIJ M30 PARKA N858 SIE N865 DELOG DCT NOVAN DCT ERCOZ DCT BADUR DCT FEJAC DCT JSY/N0439F340 DCT REVTU UP88 VASUX
Aircraft A321/M-SDE3FGIJ1KRWXY/SB1

Departure

Time 2026-05-06 20:31
Airport Seville Airport (LEZL)

Arrival

Time 2026-05-06 22:45
Airport London Gatwick Airport (EGKK)
Time Latitude Longitude Altitude Speed Heading
2026-05-06 19:57 37.42183 -5.89980 94 ft 0 kts 314°
2026-05-06 20:22 37.42179 -5.89974 94 ft 4 kts 316°
2026-05-06 20:22 37.42158 -5.89955 94 ft 4 kts 340°
2026-05-06 20:22 37.42132 -5.89948 94 ft 4 kts
2026-05-06 20:22 37.42107 -5.89956 94 ft 4 kts 34°
2026-05-06 20:23 37.42100 -5.89963 94 ft 0 kts 44°
2026-05-06 20:25 37.42101 -5.89960 94 ft 2 kts 44°
2026-05-06 20:25 37.42142 -5.89910 94 ft 11 kts 45°
2026-05-06 20:25 37.42198 -5.89839 94 ft 12 kts 45°
2026-05-06 20:26 37.42256 -5.89758 96 ft 12 kts 66°
2026-05-06 20:26 37.42225 -5.89666 94 ft 12 kts 131°
2026-05-06 20:26 37.42163 -5.89591 95 ft 12 kts 135°
2026-05-06 20:26 37.42105 -5.89515 97 ft 13 kts 134°
2026-05-06 20:27 37.42036 -5.89425 98 ft 15 kts 133°
2026-05-06 20:27 37.41983 -5.89319 100 ft 15 kts 96°
2026-05-06 20:27 37.41983 -5.89172 100 ft 19 kts 90°
2026-05-06 20:27 37.41984 -5.89007 101 ft 19 kts 89°
2026-05-06 20:28 37.41985 -5.88840 102 ft 19 kts 91°
2026-05-06 20:28 37.41985 -5.88670 104 ft 19 kts 88°
2026-05-06 20:28 37.41986 -5.88499 104 ft 20 kts 90°
2026-05-06 20:28 37.41986 -5.88323 105 ft 20 kts 90°
2026-05-06 20:29 37.41987 -5.88145 106 ft 21 kts 89°
2026-05-06 20:29 37.41987 -5.87970 107 ft 20 kts 89°
2026-05-06 20:29 37.41988 -5.87804 108 ft 18 kts 89°
2026-05-06 20:29 37.41988 -5.87657 109 ft 16 kts 90°
2026-05-06 20:30 37.41977 -5.87519 110 ft 16 kts 108°
2026-05-06 20:30 37.41829 -5.87464 116 ft 12 kts 218°
2026-05-06 20:30 37.41799 -5.87567 112 ft 19 kts 269°
2026-05-06 20:31 37.41799 -5.88053 108 ft 93 kts 270°
2026-05-06 20:31 37.41794 -5.89146 101 ft 154 kts 269°
2026-05-06 20:31 37.41802 -5.90640 418 ft 174 kts 270°
2026-05-06 20:31 37.41850 -5.92168 1171 ft 175 kts 279°
2026-05-06 20:32 37.42444 -5.93484 1859 ft 178 kts 314°
2026-05-06 20:32 37.43347 -5.94551 2486 ft 179 kts 317°
2026-05-06 20:32 37.44288 -5.95576 3092 ft 179 kts 317°
2026-05-06 20:32 37.45252 -5.96632 3558 ft 192 kts 318°
2026-05-06 20:33 37.46307 -5.97810 3896 ft 214 kts 316°
2026-05-06 20:33 37.47467 -5.99121 4141 ft 235 kts 317°
2026-05-06 20:33 37.48732 -6.00569 4425 ft 255 kts 316°
2026-05-06 20:33 37.50088 -6.02136 4881 ft 271 kts 316°
2026-05-06 20:34 37.51487 -6.03767 5608 ft 276 kts 316°
2026-05-06 20:34 37.52899 -6.05421 6392 ft 279 kts 316°
2026-05-06 20:34 37.54320 -6.07095 7152 ft 281 kts 316°
2026-05-06 20:34 37.55754 -6.08781 7900 ft 284 kts 316°
2026-05-06 20:35 37.57361 -6.10229 8591 ft 287 kts 336°
2026-05-06 20:35 37.59306 -6.10807 9289 ft 291 kts 359°
2026-05-06 20:35 37.61293 -6.10354 9971 ft 294 kts 22°
2026-05-06 20:35 37.63056 -6.08943 10327 ft 312 kts 40°
2026-05-06 20:36 37.64750 -6.07082 10463 ft 334 kts 41°
2026-05-06 20:36 37.66541 -6.05071 10665 ft 353 kts 42°
2026-05-06 20:36 37.68388 -6.02986 11180 ft 359 kts 42°
2026-05-06 20:36 37.70266 -6.00871 11776 ft 364 kts 42°
2026-05-06 20:37 37.72142 -5.98770 12355 ft 368 kts 42°
2026-05-06 20:37 37.74070 -5.96622 12954 ft 372 kts 41°
2026-05-06 20:37 37.76023 -5.94452 13551 ft 375 kts 41°
2026-05-06 20:37 37.77990 -5.92263 14122 ft 379 kts 41°
2026-05-06 20:38 37.79980 -5.90049 14679 ft 383 kts 41°
2026-05-06 20:38 37.81988 -5.87814 15234 ft 387 kts 41°
2026-05-06 20:38 37.84013 -5.85556 15792 ft 389 kts 41°
2026-05-06 20:38 37.86053 -5.83277 16297 ft 393 kts 41°
2026-05-06 20:39 37.88113 -5.80974 16821 ft 397 kts 41°
2026-05-06 20:39 37.90188 -5.78649 17331 ft 400 kts 41°
2026-05-06 20:39 37.92281 -5.76302 17827 ft 403 kts 41°
2026-05-06 20:39 37.94389 -5.73933 18306 ft 407 kts 41°
2026-05-06 20:40 37.96513 -5.71547 18764 ft 410 kts 41°
2026-05-06 20:40 37.98661 -5.69140 19187 ft 414 kts 41°
2026-05-06 20:40 38.00823 -5.66713 19630 ft 417 kts 41°
2026-05-06 20:40 38.03004 -5.64260 20056 ft 420 kts 41°
2026-05-06 20:41 38.05200 -5.61791 20469 ft 424 kts 41°
2026-05-06 20:41 38.07415 -5.59302 20873 ft 427 kts 41°
2026-05-06 20:41 38.09648 -5.56790 21246 ft 430 kts 41°
2026-05-06 20:41 38.11896 -5.54256 21626 ft 434 kts 41°
2026-05-06 20:42 38.14162 -5.51699 21994 ft 437 kts 41°
2026-05-06 20:42 38.16440 -5.49126 22358 ft 440 kts 41°
2026-05-06 20:42 38.18737 -5.46525 22729 ft 443 kts 41°
2026-05-06 20:42 38.21046 -5.43906 23090 ft 446 kts 41°
2026-05-06 20:43 38.23369 -5.41266 23454 ft 450 kts 41°
2026-05-06 20:43 38.25711 -5.38607 23797 ft 453 kts 41°
2026-05-06 20:43 38.28070 -5.35930 24147 ft 456 kts 41°
2026-05-06 20:43 38.30440 -5.33232 24472 ft 459 kts 41°
2026-05-06 20:44 38.32829 -5.30508 24792 ft 462 kts 41°
2026-05-06 20:44 38.35232 -5.27772 25128 ft 465 kts 40°
2026-05-06 20:44 38.37654 -5.25016 25443 ft 468 kts 40°
2026-05-06 20:44 38.40083 -5.22251 25752 ft 470 kts 40°
2026-05-06 20:45 38.42530 -5.19462 26052 ft 473 kts 40°
2026-05-06 20:45 38.44998 -5.16673 26352 ft 475 kts 38°
2026-05-06 20:45 38.47704 -5.14261 26634 ft 475 kts 27°
2026-05-06 20:45 38.50681 -5.12452 26928 ft 474 kts 17°
2026-05-06 20:46 38.53838 -5.11290 27222 ft 472 kts
2026-05-06 20:46 38.57081 -5.10797 27508 ft 468 kts 357°
2026-05-06 20:46 38.60322 -5.10948 27791 ft 466 kts 350°
2026-05-06 20:46 38.63561 -5.11286 28068 ft 468 kts 351°
2026-05-06 20:47 38.66811 -5.11617 28373 ft 469 kts 351°
2026-05-06 20:47 38.70077 -5.11945 28655 ft 471 kts 351°
2026-05-06 20:47 38.73307 -5.12266 28920 ft 473 kts 351°
2026-05-06 20:47 38.76591 -5.12595 29171 ft 475 kts 351°
2026-05-06 20:48 38.79892 -5.12928 29409 ft 476 kts 351°
2026-05-06 20:48 38.83200 -5.13264 29643 ft 478 kts 351°
2026-05-06 20:48 38.86518 -5.13605 29867 ft 479 kts 350°
2026-05-06 20:48 38.89836 -5.13949 30181 ft 478 kts 350°
2026-05-06 20:49 38.93150 -5.14285 30507 ft 478 kts 352°
2026-05-06 20:49 38.96488 -5.14228 30796 ft 483 kts
2026-05-06 20:49 38.99812 -5.13480 31101 ft 488 kts 11°
2026-05-06 20:49 39.03035 -5.12061 31387 ft 492 kts 20°
2026-05-06 20:50 39.06061 -5.09986 31671 ft 495 kts 30°
2026-05-06 20:50 39.08961 -5.07584 31946 ft 495 kts 30°
2026-05-06 20:50 39.11856 -5.05189 32217 ft 495 kts 30°
2026-05-06 20:50 39.14750 -5.02790 32481 ft 494 kts 30°
2026-05-06 20:51 39.17639 -5.00395 32702 ft 494 kts 30°
2026-05-06 20:51 39.20532 -4.98001 32969 ft 494 kts 30°
2026-05-06 20:51 39.23422 -4.95602 33230 ft 494 kts 30°
2026-05-06 20:51 39.26306 -4.93202 33476 ft 493 kts 30°
2026-05-06 20:52 39.29191 -4.90800 33724 ft 493 kts 30°
2026-05-06 20:52 39.32073 -4.88404 33971 ft 493 kts 30°
2026-05-06 20:52 39.34956 -4.86009 34198 ft 493 kts 30°
2026-05-06 20:52 39.37837 -4.83613 34416 ft 493 kts 30°
2026-05-06 20:53 39.40718 -4.81213 34655 ft 492 kts 30°
2026-05-06 20:53 39.43591 -4.78814 34885 ft 492 kts 30°
2026-05-06 20:53 39.46462 -4.76413 35108 ft 492 kts 30°
2026-05-06 20:53 39.49333 -4.74006 35342 ft 491 kts 30°
2026-05-06 20:54 39.52196 -4.71600 35562 ft 491 kts 30°
2026-05-06 20:54 39.55062 -4.69190 35779 ft 490 kts 30°
2026-05-06 20:54 39.57920 -4.66784 35897 ft 490 kts 30°
2026-05-06 20:55 39.63636 -4.61972 35915 ft 490 kts 30°
2026-05-06 20:55 39.69314 -4.57190 35915 ft 490 kts 30°
2026-05-06 20:56 39.75029 -4.52374 35914 ft 489 kts 30°
2026-05-06 20:56 39.80740 -4.47540 35921 ft 490 kts 30°
2026-05-06 20:57 39.86439 -4.42692 35932 ft 490 kts 30°
2026-05-06 20:57 39.92155 -4.37839 35939 ft 491 kts 30°
2026-05-06 20:58 39.97947 -4.33154 35937 ft 488 kts 22°
2026-05-06 20:58 40.04085 -4.29408 35942 ft 487 kts 21°
2026-05-06 20:59 40.10223 -4.25666 35947 ft 487 kts 21°
2026-05-06 20:59 40.16363 -4.21918 35947 ft 487 kts 21°
2026-05-06 21:00 40.22501 -4.18155 35947 ft 487 kts 21°
2026-05-06 21:00 40.28631 -4.14382 35947 ft 486 kts 21°
2026-05-06 21:01 40.34756 -4.10619 35946 ft 486 kts 21°
2026-05-06 21:01 40.40884 -4.06863 35947 ft 486 kts 21°
2026-05-06 21:02 40.47010 -4.03084 35954 ft 486 kts 21°
2026-05-06 21:02 40.53128 -3.99291 35959 ft 486 kts 21°
2026-05-06 21:03 40.59195 -3.95523 35957 ft 485 kts 21°
2026-05-06 21:03 40.65308 -3.91723 35962 ft 486 kts 21°
2026-05-06 21:04 40.71414 -3.87924 35969 ft 485 kts 21°
2026-05-06 21:04 40.77518 -3.84123 35972 ft 485 kts 21°
2026-05-06 21:05 40.83611 -3.80322 35976 ft 484 kts 22°
2026-05-06 21:05 40.89690 -3.76512 35979 ft 483 kts 21°
2026-05-06 21:06 40.95763 -3.72698 35975 ft 483 kts 21°
2026-05-06 21:06 41.01828 -3.68893 35972 ft 482 kts 21°
2026-05-06 21:07 41.07882 -3.65081 35971 ft 481 kts 22°
2026-05-06 21:07 41.14026 -3.61682 35972 ft 475 kts 11°
2026-05-06 21:08 41.20478 -3.60590 35976 ft 463 kts 354°
2026-05-06 21:08 41.25827 -3.60754 35977 ft 462 kts 355°
2026-05-06 21:09 41.32255 -3.60917 35980 ft 461 kts 355°
2026-05-06 21:09 41.38664 -3.61068 35982 ft 460 kts 355°
2026-05-06 21:10 41.45059 -3.61217 35981 ft 459 kts 355°
2026-05-06 21:10 41.51447 -3.61380 35983 ft 459 kts 355°
2026-05-06 21:11 41.57840 -3.61423 35988 ft 459 kts 356°
2026-05-06 21:11 41.64229 -3.61376 35995 ft 459 kts 356°
2026-05-06 21:12 41.70617 -3.61351 35998 ft 459 kts 356°
2026-05-06 21:12 41.77006 -3.61355 36000 ft 459 kts 356°
2026-05-06 21:13 41.83395 -3.61360 36010 ft 459 kts 356°
2026-05-06 21:13 41.89785 -3.61365 36010 ft 459 kts 356°
2026-05-06 21:14 41.96130 -3.61368 36016 ft 459 kts 356°
2026-05-06 21:14 42.02515 -3.61367 36021 ft 458 kts 356°
2026-05-06 21:15 42.08873 -3.61626 36022 ft 457 kts 353°
2026-05-06 21:15 42.15213 -3.62134 36022 ft 456 kts 353°
2026-05-06 21:16 42.21559 -3.62630 36023 ft 457 kts 353°
2026-05-06 21:16 42.27912 -3.63047 36023 ft 457 kts 354°
2026-05-06 21:17 42.34262 -3.63430 36020 ft 457 kts 354°
2026-05-06 21:17 42.40538 -3.64452 36019 ft 453 kts 348°
2026-05-06 21:18 42.46783 -3.65700 36018 ft 454 kts 348°
2026-05-06 21:18 42.53031 -3.66954 36020 ft 454 kts 348°
2026-05-06 21:19 42.59281 -3.68204 36028 ft 454 kts 348°
2026-05-06 21:19 42.65535 -3.69449 36032 ft 454 kts 348°
2026-05-06 21:20 42.71794 -3.70660 36032 ft 454 kts 349°
2026-05-06 21:20 42.78064 -3.71717 36035 ft 454 kts 350°
2026-05-06 21:21 42.84334 -3.72738 36039 ft 454 kts 350°
2026-05-06 21:21 42.90602 -3.73787 36038 ft 453 kts 350°
2026-05-06 21:22 42.96865 -3.74864 36050 ft 454 kts 349°
2026-05-06 21:22 43.03122 -3.75953 36048 ft 453 kts 350°
2026-05-06 21:23 43.09376 -3.77040 36047 ft 453 kts 350°
2026-05-06 21:23 43.15623 -3.78108 36055 ft 452 kts 350°
2026-05-06 21:24 43.21861 -3.79180 36046 ft 452 kts 350°
2026-05-06 21:24 43.28102 -3.80265 36051 ft 452 kts 350°
2026-05-06 21:25 43.34296 -3.81339 36047 ft 452 kts 350°
2026-05-06 21:25 43.40529 -3.82421 36048 ft 452 kts 350°
2026-05-06 21:26 43.46765 -3.83511 36048 ft 452 kts 350°
2026-05-06 21:26 43.52999 -3.84602 36047 ft 451 kts 350°
2026-05-06 21:27 43.59227 -3.85689 36044 ft 451 kts 350°
2026-05-06 21:27 43.65457 -3.86778 36046 ft 451 kts 350°
2026-05-06 21:28 43.71681 -3.87863 36047 ft 451 kts 350°
2026-05-06 21:28 43.77905 -3.88963 36047 ft 451 kts 350°
2026-05-06 21:29 43.84126 -3.90068 36047 ft 451 kts 351°
2026-05-06 21:29 43.90354 -3.91169 36053 ft 451 kts 350°
2026-05-06 21:30 43.96581 -3.92275 36049 ft 451 kts 350°
2026-05-06 21:30 44.02810 -3.93381 36054 ft 451 kts 350°
2026-05-06 21:31 44.09042 -3.94488 36051 ft 451 kts 350°
2026-05-06 21:31 44.15272 -3.95599 36050 ft 451 kts 350°
2026-05-06 21:32 44.21491 -3.96717 36048 ft 451 kts 350°
2026-05-06 21:32 44.30823 -3.98381 36046 ft 451 kts 352°
2026-05-06 21:33 44.37109 -3.98162 36045 ft 454 kts
2026-05-06 21:33 44.43393 -3.97273 36049 ft 454 kts
2026-05-06 21:34 44.49680 -3.96393 36045 ft 454 kts
2026-05-06 21:34 44.55927 -3.95522 36057 ft 454 kts
2026-05-06 21:35 44.62208 -3.94638 36047 ft 453 kts
2026-05-06 21:35 44.68486 -3.93741 36047 ft 454 kts
2026-05-06 21:36 44.74757 -3.92851 36052 ft 453 kts
2026-05-06 21:36 44.81026 -3.91976 36048 ft 452 kts
2026-05-06 21:37 44.87289 -3.91075 36052 ft 452 kts
2026-05-06 21:37 44.93548 -3.90179 36047 ft 452 kts
2026-05-06 21:38 44.99802 -3.89281 36054 ft 451 kts
2026-05-06 21:38 45.06052 -3.88387 36048 ft 452 kts
2026-05-06 21:39 45.12305 -3.87489 36052 ft 451 kts
2026-05-06 21:39 45.18549 -3.86593 36059 ft 451 kts
2026-05-06 21:40 45.24787 -3.85702 36050 ft 451 kts
2026-05-06 21:40 45.31022 -3.84806 36054 ft 450 kts
2026-05-06 21:41 45.37251 -3.83896 36047 ft 450 kts
2026-05-06 21:41 45.43479 -3.82989 36046 ft 450 kts
2026-05-06 21:42 45.49705 -3.82084 36056 ft 450 kts
2026-05-06 21:42 45.55926 -3.81177 36045 ft 449 kts
2026-05-06 21:43 45.62147 -3.80275 36050 ft 449 kts
2026-05-06 21:43 45.68370 -3.79374 36053 ft 450 kts
2026-05-06 21:44 45.74594 -3.78458 36056 ft 450 kts
2026-05-06 21:44 45.80816 -3.77536 36055 ft 449 kts
2026-05-06 21:45 45.87030 -3.76614 36053 ft 449 kts
2026-05-06 21:45 45.93239 -3.75699 36055 ft 449 kts
2026-05-06 21:46 45.99454 -3.74780 36056 ft 449 kts
2026-05-06 21:46 46.05671 -3.73859 36057 ft 449 kts
2026-05-06 21:47 46.11844 -3.72947 36060 ft 449 kts
2026-05-06 21:47 46.18057 -3.72015 36056 ft 449 kts
2026-05-06 21:48 46.24272 -3.71090 36052 ft 449 kts
2026-05-06 21:48 46.30483 -3.70162 36050 ft 448 kts
2026-05-06 21:49 46.36700 -3.69475 36048 ft 448 kts
2026-05-06 21:49 46.42930 -3.69264 36048 ft 448 kts 359°
2026-05-06 21:50 46.49156 -3.69123 36054 ft 448 kts 360°
2026-05-06 21:50 46.55385 -3.68873 36055 ft 448 kts
2026-05-06 21:51 46.61609 -3.68551 36048 ft 447 kts
2026-05-06 21:51 46.67832 -3.68241 36047 ft 447 kts
2026-05-06 21:52 46.74053 -3.67949 36047 ft 447 kts
2026-05-06 21:52 46.80272 -3.67668 36048 ft 447 kts
2026-05-06 21:53 46.86489 -3.67376 36049 ft 447 kts
2026-05-06 21:53 46.92709 -3.67076 36056 ft 447 kts
2026-05-06 21:54 46.98925 -3.66785 36054 ft 447 kts
2026-05-06 21:54 47.05142 -3.66477 36049 ft 447 kts
2026-05-06 21:55 47.10307 -3.66222 36050 ft 447 kts
2026-05-06 21:55 47.17522 -3.65872 36053 ft 446 kts
2026-05-06 21:56 47.23728 -3.65591 36048 ft 446 kts
2026-05-06 21:56 47.29928 -3.65308 36055 ft 446 kts
2026-05-06 21:57 47.35123 -3.65051 36046 ft 446 kts
2026-05-06 21:57 47.41317 -3.64747 36044 ft 445 kts
2026-05-06 21:58 47.47509 -3.64456 36045 ft 445 kts
2026-05-06 21:58 47.53647 -3.64169 36052 ft 444 kts
2026-05-06 21:59 47.59828 -3.63867 36040 ft 444 kts
2026-05-06 21:59 47.66010 -3.63560 36045 ft 445 kts
2026-05-06 22:00 47.72198 -3.63265 36042 ft 445 kts
2026-05-06 22:00 47.78388 -3.62956 36043 ft 445 kts
2026-05-06 22:01 47.84581 -3.62658 36045 ft 445 kts
2026-05-06 22:01 47.90772 -3.62362 36045 ft 445 kts
2026-05-06 22:02 47.96963 -3.62053 36046 ft 445 kts
2026-05-06 22:02 48.03157 -3.61742 36054 ft 445 kts
2026-05-06 22:03 48.09352 -3.61436 36048 ft 445 kts
2026-05-06 22:03 48.15542 -3.61132 36048 ft 445 kts
2026-05-06 22:04 48.21732 -3.60831 36046 ft 445 kts
2026-05-06 22:04 48.27918 -3.60331 36039 ft 446 kts
2026-05-06 22:05 48.30928 -3.59197 36038 ft 447 kts 19°
2026-05-06 22:05 48.33758 -3.57263 36035 ft 448 kts 29°
2026-05-06 22:05 48.38542 -3.51284 36035 ft 451 kts 48°
2026-05-06 22:06 48.42681 -3.44189 36035 ft 451 kts 47°
2026-05-06 22:06 48.46804 -3.37129 36046 ft 452 kts 47°
2026-05-06 22:07 48.50956 -3.30002 36048 ft 453 kts 47°
2026-05-06 22:07 48.55113 -3.22846 36043 ft 453 kts 47°
2026-05-06 22:08 48.59263 -3.15678 36058 ft 453 kts 47°
2026-05-06 22:08 48.63412 -3.08497 36044 ft 454 kts 48°
2026-05-06 22:09 48.67548 -3.01294 36058 ft 453 kts 48°
2026-05-06 22:09 48.71063 -2.93387 36045 ft 455 kts 65°
2026-05-06 22:10 48.72961 -2.84248 36046 ft 456 kts 75°
2026-05-06 22:10 48.74534 -2.74937 36048 ft 456 kts 75°
2026-05-06 22:11 48.76134 -2.65640 36048 ft 456 kts 71°
2026-05-06 22:11 48.78916 -2.57083 36048 ft 453 kts 52°
2026-05-06 22:12 48.83329 -2.50365 36048 ft 450 kts 36°
2026-05-06 22:12 48.88306 -2.44584 36039 ft 450 kts 36°
2026-05-06 22:13 48.93268 -2.38762 36050 ft 451 kts 36°
2026-05-06 22:13 48.98230 -2.32915 36050 ft 451 kts 37°
2026-05-06 22:14 49.03189 -2.27064 36047 ft 451 kts 37°
2026-05-06 22:14 49.08152 -2.21200 36045 ft 451 kts 37°
2026-05-06 22:15 49.13107 -2.15320 36051 ft 451 kts 37°
2026-05-06 22:15 49.18064 -2.09435 36049 ft 451 kts 37°
2026-05-06 22:16 49.23085 -2.03798 36042 ft 450 kts 28°
2026-05-06 22:16 49.28558 -1.99172 36046 ft 449 kts 27°
2026-05-06 22:17 49.34029 -1.94534 36051 ft 449 kts 28°
2026-05-06 22:17 49.39505 -1.89870 36047 ft 450 kts 28°
2026-05-06 22:18 49.44984 -1.85203 36052 ft 450 kts 28°
2026-05-06 22:18 49.50464 -1.80519 36043 ft 451 kts 28°
2026-05-06 22:19 49.55936 -1.75817 36042 ft 451 kts 28°
2026-05-06 22:19 49.61546 -1.71548 36036 ft 449 kts 18°
2026-05-06 22:20 49.67448 -1.68316 35533 ft 453 kts 18°
2026-05-06 22:20 49.70443 -1.66666 34489 ft 461 kts 18°
2026-05-06 22:20 49.73476 -1.64989 33593 ft 464 kts 18°
2026-05-06 22:21 49.76512 -1.63308 32758 ft 464 kts 18°
2026-05-06 22:21 49.79555 -1.61622 31858 ft 464 kts 18°
2026-05-06 22:21 49.82596 -1.59935 31017 ft 463 kts 18°
2026-05-06 22:21 49.85624 -1.58247 30198 ft 462 kts 18°
2026-05-06 22:22 49.88639 -1.56563 29451 ft 459 kts 18°
2026-05-06 22:22 49.91628 -1.54891 28763 ft 455 kts 18°
2026-05-06 22:22 49.94592 -1.53231 28087 ft 451 kts 18°
2026-05-06 22:22 49.97528 -1.51587 27424 ft 447 kts 18°
2026-05-06 22:23 50.00445 -1.49962 26758 ft 443 kts 18°
2026-05-06 22:23 50.03348 -1.48434 26092 ft 439 kts 17°
2026-05-06 22:23 50.06254 -1.47001 25365 ft 436 kts 15°
2026-05-06 22:23 50.09134 -1.45640 24849 ft 429 kts 15°
2026-05-06 22:24 50.11965 -1.44317 24330 ft 422 kts 15°
2026-05-06 22:24 50.14750 -1.43001 23833 ft 415 kts 15°
2026-05-06 22:24 50.17482 -1.41685 23346 ft 407 kts 15°
2026-05-06 22:24 50.20163 -1.40376 22878 ft 401 kts 16°
2026-05-06 22:25 50.22800 -1.39078 22421 ft 395 kts 16°
2026-05-06 22:25 50.25399 -1.37795 21966 ft 389 kts 16°
2026-05-06 22:25 50.27956 -1.36528 21522 ft 383 kts 16°
2026-05-06 22:25 50.30446 -1.35291 21080 ft 378 kts 16°
2026-05-06 22:26 50.32932 -1.34059 20641 ft 372 kts 16°
2026-05-06 22:26 50.35385 -1.32848 20191 ft 367 kts 16°
2026-05-06 22:26 50.37805 -1.31652 19732 ft 362 kts 16°
2026-05-06 22:26 50.40192 -1.30469 19288 ft 358 kts 16°
2026-05-06 22:27 50.42554 -1.29296 18832 ft 354 kts 16°
2026-05-06 22:27 50.44888 -1.28140 18380 ft 350 kts 16°
2026-05-06 22:27 50.47199 -1.27000 17919 ft 346 kts 16°
2026-05-06 22:27 50.49464 -1.25778 17481 ft 343 kts 22°
2026-05-06 22:28 50.51563 -1.24010 17026 ft 342 kts 33°
2026-05-06 22:28 50.53486 -1.21837 16566 ft 340 kts 35°
2026-05-06 22:28 50.55392 -1.19669 16107 ft 337 kts 34°
2026-05-06 22:28 50.57288 -1.17527 15652 ft 334 kts 34°
2026-05-06 22:29 50.59170 -1.15408 15187 ft 332 kts 34°
2026-05-06 22:29 50.61038 -1.13308 14743 ft 329 kts 34°
2026-05-06 22:29 50.62889 -1.11222 14291 ft 326 kts 35°
2026-05-06 22:29 50.64727 -1.09145 13841 ft 323 kts 35°
2026-05-06 22:30 50.66543 -1.07087 13396 ft 321 kts 34°
2026-05-06 22:30 50.68346 -1.05041 12949 ft 318 kts 35°
2026-05-06 22:30 50.70133 -1.03008 12507 ft 315 kts 35°
2026-05-06 22:30 50.71905 -1.00991 12068 ft 313 kts 35°
2026-05-06 22:31 50.73665 -0.98985 11630 ft 311 kts 35°
2026-05-06 22:31 50.75412 -0.96997 11198 ft 308 kts 35°
2026-05-06 22:31 50.77147 -0.95020 10765 ft 307 kts 34°
2026-05-06 22:31 50.78866 -0.93062 10470 ft 300 kts 34°
2026-05-06 22:32 50.80531 -0.91157 10207 ft 292 kts 34°
2026-05-06 22:32 50.82165 -0.89286 9966 ft 288 kts 34°
2026-05-06 22:32 50.83783 -0.87430 9841 ft 287 kts 35°
2026-05-06 22:32 50.85402 -0.85571 9713 ft 287 kts 34°
2026-05-06 22:33 50.87017 -0.83715 9488 ft 288 kts 34°
2026-05-06 22:33 50.88641 -0.81849 9050 ft 289 kts 34°
2026-05-06 22:33 50.90260 -0.79989 8689 ft 287 kts 34°
2026-05-06 22:33 50.91868 -0.78137 8314 ft 284 kts 34°
2026-05-06 22:34 50.93442 -0.76322 7923 ft 283 kts 35°
2026-05-06 22:34 50.95027 -0.74496 7548 ft 281 kts 35°
2026-05-06 22:34 50.96599 -0.72685 7188 ft 277 kts 35°
2026-05-06 22:34 50.98154 -0.70892 6805 ft 276 kts 35°
2026-05-06 22:35 50.99703 -0.69100 6453 ft 274 kts 35°
2026-05-06 22:35 51.01237 -0.67320 6129 ft 272 kts 35°
2026-05-06 22:35 51.02760 -0.65555 5796 ft 271 kts 35°
2026-05-06 22:35 51.04273 -0.63799 5486 ft 269 kts 37°
2026-05-06 22:36 51.05589 -0.61720 5144 ft 268 kts 52°
2026-05-06 22:36 51.06533 -0.59173 4772 ft 269 kts 61°
2026-05-06 22:36 51.07432 -0.56497 4051 ft 282 kts 61°
2026-05-06 22:36 51.08375 -0.53704 3471 ft 286 kts 61°
2026-05-06 22:37 51.09307 -0.50959 3251 ft 277 kts 59°
2026-05-06 22:37 51.10559 -0.48725 3044 ft 269 kts 33°
2026-05-06 22:37 51.12265 -0.47764 3012 ft 256 kts
2026-05-06 22:37 51.13950 -0.48254 3012 ft 242 kts 335°
2026-05-06 22:38 51.15169 -0.49982 3014 ft 235 kts 303°
2026-05-06 22:38 51.15601 -0.52409 3021 ft 227 kts 270°
2026-05-06 22:38 51.15136 -0.54730 3034 ft 220 kts 233°
2026-05-06 22:38 51.13979 -0.56163 3025 ft 205 kts 197°
2026-05-06 22:39 51.12659 -0.56185 3042 ft 186 kts 156°
2026-05-06 22:39 51.11628 -0.54964 3030 ft 186 kts 122°
2026-05-06 22:39 51.11014 -0.53213 3014 ft 175 kts 110°
2026-05-06 22:39 51.10562 -0.51476 3020 ft 166 kts 101°
2026-05-06 22:40 51.10530 -0.49699 3014 ft 160 kts 76°
2026-05-06 22:40 51.10775 -0.47977 3020 ft 158 kts 76°
2026-05-06 22:40 51.11016 -0.46256 3024 ft 159 kts 75°
2026-05-06 22:40 51.11260 -0.44529 3039 ft 159 kts 75°
2026-05-06 22:41 51.11725 -0.41212 2766 ft 149 kts 76°
2026-05-06 22:41 51.11946 -0.39639 2591 ft 145 kts 75°
2026-05-06 22:41 51.12165 -0.38074 2388 ft 146 kts 75°
2026-05-06 22:42 51.12381 -0.36524 2226 ft 145 kts 77°
2026-05-06 22:42 51.12603 -0.34945 1992 ft 143 kts 76°
2026-05-06 22:42 51.12827 -0.33418 1803 ft 140 kts 76°
2026-05-06 22:42 51.13034 -0.31921 1608 ft 138 kts 77°
2026-05-06 22:43 51.13226 -0.30416 1474 ft 139 kts 79°
2026-05-06 22:43 51.13432 -0.28920 1276 ft 138 kts 76°
2026-05-06 22:43 51.13643 -0.27450 1040 ft 137 kts 77°
2026-05-06 22:43 51.13849 -0.25970 869 ft 138 kts 78°
2026-05-06 22:44 51.14052 -0.24485 714 ft 137 kts 77°
2026-05-06 22:44 51.14261 -0.23003 500 ft 137 kts 77°
2026-05-06 22:44 51.14468 -0.21527 333 ft 137 kts 77°
2026-05-06 22:44 51.14674 -0.20055 213 ft 133 kts 77°
2026-05-06 22:45 51.14843 -0.18839 206 ft 89 kts 77°
2026-05-06 22:45 51.14937 -0.18151 208 ft 35 kts 76°
2026-05-06 22:45 51.15022 -0.17873 209 ft 18 kts 53°
2026-05-06 22:45 51.15074 -0.17771 207 ft 16 kts 34°
2026-05-06 22:46 51.15180 -0.17772 205 ft 15 kts 354°
2026-05-06 22:46 51.15258 -0.17738 205 ft 9 kts 60°
2026-05-06 22:46 51.15277 -0.17633 205 ft 11 kts 76°
2026-05-06 22:46 51.15295 -0.17503 205 ft 13 kts 79°
2026-05-06 22:47 51.15326 -0.17381 205 ft 13 kts 36°
2026-05-06 22:47 51.15373 -0.17275 205 ft 12 kts 69°
2026-05-06 22:47 51.15398 -0.17160 205 ft 10 kts 65°
2026-05-06 22:47 51.15421 -0.17087 205 ft 5 kts 32°
2026-05-06 22:48 51.15456 -0.17086 205 ft 4 kts 349°
2026-05-06 22:48 51.15467 -0.17090 205 ft 0 kts 348°